#timestamp,LO_Frequency,Hit,StdDev 
1635494415.5,286046914.2,N
1635494435.3,286046912.2,N
1635494455.1,286046912.6,N
1635494475.9,286046912.4,N
1635494495.7,286046908.7,N
1635494515.5,286046908.3,N
1635494535.4,286046905.6,N
1635494555.2,286046909.3,N
1635494575.1,286046914.0,N
1635494576.0,286046914.0,N
1635494595.8,286046916.0,N
1635494615.6,286046917.8,N
1635494635.5,286046919.3,N
1635494655.3,286046920.5,N
1635494675.1,286046924.1,N
1635494695.9,286046922.7,N
1635494715.7,286046919.3,N
1635494735.6,286046916.6,N
1635494755.4,286046923.9,N
1635494775.2,286046923.3,Y
1635494795.1,286046995.5,P
1635494796.0,286046995.5,N
1635494815.8,286047000.9,N
1635494835.7,286047006.0,N
1635494855.5,286047011.3,N
1635494875.3,286047013.6,N
1635494895.2,286047009.2,N
1635494915.9,286047001.6,N
1635494935.7,286046997.1,N
1635494955.6,286046992.3,N
1635494975.4,286046989.3,N
1635494995.3,286046984.4,N
1635495015.1,286046975.7,N
1635495016.0,286046975.7,N
1635495035.8,286046978.2,N
1635495055.7,286046982.4,N
1635495075.5,286046985.9,N
1635495095.3,286046989.1,N
1635495115.2,286046993.8,N
1635495135.0,286046996.0,N
1635495135.9,286046996.0,N
1635495155.8,286046993.6,N
1635495175.6,286046994.6,N
1635495195.4,286046993.4,N
1635495215.3,286046991.8,N
1635495235.1,286046989.1,N
1635495255.8,286046984.6,N
1635495275.7,286046969.4,N
1635495295.5,286046959.8,N
1635495315.4,286046951.6,N
1635495335.2,286046942.6,Y
1635495355.0,286046952.1,P
1635495355.9,286046952.1,N
1635495375.8,286046954.1,N
1635495395.6,286046952.8,N
1635495415.5,286046951.6,Y
1635495435.3,286046987.9,P
1635495455.1,286046985.3,N
1635495475.9,286046991.1,N
1635495495.7,286046996.8,N
1635495515.6,286047003.5,N
1635495535.4,286047000.6,N
1635495555.2,286046996.7,N
1635495575.1,286046992.5,N
1635495576.0,286046992.5,N
1635495595.8,286046984.2,N
1635495615.6,286046980.4,N
1635495635.5,286046962.1,Y
1635495655.3,286046958.2,P
1635495675.2,286046957.4,N
1635495695.9,286046958.4,N
1635495715.7,286046958.1,Y
1635495735.6,286046996.1,P
1635495755.4,286047002.4,N
1635495775.2,286047006.2,N
1635495795.1,286047005.6,N
1635495796.0,286047005.6,N
1635495815.8,286047007.8,N
1635495835.7,286047012.3,N
1635495855.5,286047014.8,N
1635495875.3,286047016.5,N
1635495895.2,286047011.5,N
1635495915.0,286047013.9,N
1635495915.9,286047013.9,N
1635495935.7,286047011.1,N
1635495955.6,286047006.3,N
1635495975.4,286047001.1,N
1635495995.3,286046994.5,N
1635496015.1,286046989.2,N
1635496016.0,286046989.2,N
1635496035.8,286046984.1,N
1635496055.7,286046981.9,N
1635496075.5,286046978.4,N
1635496095.3,286046974.3,N
1635496115.2,286046973.5,N
1635496135.0,286046974.5,N
1635496135.9,286046974.5,N
1635496155.8,286046976.5,N
1635496175.6,286046975.9,N
1635496195.4,286046978.0,N
1635496215.3,286046974.2,N
1635496235.1,286046974.0,N
1635496255.9,286046970.8,N
1635496275.7,286046958.1,N
1635496295.5,286046952.3,N
1635496315.4,286046953.0,N
1635496335.2,286046944.0,N
1635496355.0,286046940.1,N
1635496355.9,286046940.1,N
1635496375.8,286046937.2,N
1635496395.6,286046933.2,N
1635496415.5,286046926.1,Y
1635496435.3,286046946.2,P
1635496455.1,286046946.7,P
1635496475.9,286046954.1,P
1635496495.7,286046963.8,N
1635496515.6,286046967.7,N
1635496535.4,286046979.9,N
1635496555.2,286046990.7,N
1635496575.1,286046994.7,N
1635496576.0,286046994.7,N
1635496595.8,286046996.4,N
1635496615.6,286046989.6,N
1635496635.5,286046986.4,N
1635496655.3,286046982.7,N
1635496675.2,286046976.4,N
1635496695.9,286046983.3,N
1635496715.7,286046981.4,N
1635496735.6,286046979.1,N
1635496755.4,286046981.7,N
1635496775.2,286046982.1,N
1635496795.1,286046979.4,N
1635496796.0,286046979.4,N
1635496815.8,286046971.2,N
1635496835.7,286046970.5,N
1635496855.5,286046965.6,N
1635496875.3,286046972.0,N
1635496895.2,286046971.0,N
1635496915.0,286046973.5,N
1635496915.9,286046973.5,N
1635496935.7,286046966.3,N
1635496955.6,286046959.5,Y
1635496975.4,286046974.4,P
1635496995.3,286046967.7,P
1635497015.1,286046963.0,P
1635497035.8,286046965.9,Y
1635497055.7,286047000.6,P
1635497075.5,286046999.6,N
1635497095.4,286046998.3,N
1635497115.2,286046993.9,N
1635497135.0,286046984.9,N
1635497135.9,286046984.9,N
1635497155.8,286046992.8,N
1635497175.6,286047009.2,N
1635497195.5,286047011.2,N
1635497215.3,286047014.6,N
1635497235.1,286047012.5,N
1635497255.9,286047007.8,N
1635497275.7,286047004.8,N
1635497295.5,286047001.2,N
1635497315.4,286047006.1,N
1635497335.2,286047019.2,N
1635497355.1,286047027.3,N
1635497356.0,286047027.3,N
1635497375.8,286047037.4,N
1635497395.7,286047044.9,N
1635497415.5,286047049.1,N
1635497435.3,286047049.0,N
1635497455.2,286047049.4,N
1635497475.0,286047049.3,N
1635497475.9,286047049.3,N
1635497495.8,286047047.7,N
1635497515.6,286047060.0,N
1635497535.4,286047058.7,N
1635497555.3,286047052.5,N
1635497575.1,286047051.7,N
1635497595.9,286047049.9,N
1635497615.7,286047050.9,N
1635497635.6,286047053.4,N
1635497655.4,286047060.4,N
1635497675.2,286047060.3,N
1635497695.1,286047065.3,N
1635497696.0,286047065.3,Y
1635497715.8,286047035.6,P
1635497735.7,286047043.7,P
1635497755.5,286047050.9,P
1635497775.3,286047057.2,Y
1635497795.2,286047010.9,P
1635497815.0,286047000.1,N
1635497815.9,286047000.1,N
1635497835.8,286047000.4,N
1635497855.6,286047000.8,N
1635497875.5,286047001.1,N
1635497895.3,286047000.9,N
1635497915.1,286047008.8,N
1635497935.9,286047017.8,N
1635497955.7,286047029.8,N
1635497975.5,286047034.8,N
1635497995.4,286047037.4,N
